Location: Peebles
(55.6412°N, 3.1714°W)
Time: 16:47:13
(UTC+01:00)

Cosmos 1934 Rocket - Pass Details

Date: 04 February 2022
Orbit: 938 x 999 km, 83.0° (Epoch: 25 May)

Event Time Altitude Azimuth Distance (km) Brightness Sun altitude
Rises 06:39:25 0° 187° (S) 3,677 7.1 -11.5°
Reaches altitude 10° 06:41:56 10° 187° (S) 2,724 6.4 -11.2°
Maximum altitude 06:48:11 86° 100° (E) 978 4.1 -10.3°
Drops below altitude 10° 06:54:23 10° 12° (NNE) 2,700 6.3 -9.5°
Sets 06:56:52 0° 12° (NNE) 3,642 7.0 -9.1°
